• In Hungary
  • List of Countries
  • For 7 days
  • Water Temperature
  • Satellite Maps
  • Weather Map
  • News
  • Weather Widgets
  • user-avatar
    Login

    Hourly Weather Nowogrodziec

    Today, 26 May, Saturday

    Time Temperature Precipitation Wind Pressure Humidity
    00:00 +14°C° 0 mm 1 mps 748 mmHg 89%
    01:00 +14°C° 0 mm 1 mps 748 mmHg 90%
    02:00 +14°C° 0 mm 1 mps 748 mmHg 90%
    03:00 +13°C° 0 mm 1 mps 748 mmHg 90%
    04:00 +12°C° 0 mm 0 mps 748 mmHg 90%
    05:00 +15°C° 0 mm 1 mps 748 mmHg 84%
    06:00 +18°C° 0 mm 1 mps 749 mmHg 78%
    07:00 +20°C° 0 mm 1 mps 749 mmHg 72%
    08:00 +21°C° 0 mm 1 mps 749 mmHg 66%
    09:00 +23°C° 0 mm 1 mps 749 mmHg 59%
    10:00 +25°C° 0 mm 1 mps 749 mmHg 53%
    11:00 +26°C° 0.1 mm 1 mps 749 mmHg 51%
    12:00 +26°C° 0.1 mm 1 mps 749 mmHg 49%
    13:00 +27°C° 0.1 mm 1 mps 749 mmHg 46%
    14:00 +27°C° 0.1 mm 1 mps 748 mmHg 48%
    15:00 +26°C° 0.1 mm 1 mps 748 mmHg 49%
    16:00 +26°C° 0.1 mm 1 mps 748 mmHg 50%
    17:00 +25°C° 0.1 mm 1 mps 748 mmHg 55%
    18:00 +24°C° 0.1 mm 1 mps 748 mmHg 60%
    19:00 +22°C° 0.1 mm 1 mps 748 mmHg 66%
    20:00 +21°C° 0 mm 1 mps 748 mmHg 68%
    21:00 +20°C° 0 mm 1 mps 748 mmHg 71%
    22:00 +19°C° 0 mm 1 mps 748 mmHg 73%
    23:00 +18°C° 0 mm 1 mps 748 mmHg 75%

    Tomorrow, 27 May, Sunday

    Time Temperature Precipitation Wind Pressure Humidity
    00:00 +18°C° 0 mm 1 mps 748 mmHg 77%
    01:00 +16°C° 0 mm 1 mps 748 mmHg 79%
    02:00 +16°C° 0 mm 1 mps 748 mmHg 80%
    03:00 +15°C° 0 mm 1 mps 748 mmHg 81%
    04:00 +15°C° 0 mm 1 mps 748 mmHg 83%
    05:00 +18°C° 0 mm 1 mps 748 mmHg 77%
    06:00 +20°C° 0 mm 1 mps 748 mmHg 72%
    07:00 +22°C° 0 mm 1 mps 748 mmHg 66%
    08:00 +23°C° 0 mm 1 mps 748 mmHg 60%
    09:00 +25°C° 0 mm 2 mps 748 mmHg 54%
    10:00 +27°C° 0 mm 2 mps 748 mmHg 48%
    11:00 +27°C° 0 mm 2 mps 748 mmHg 47%
    12:00 +28°C° 0 mm 2 mps 748 mmHg 45%
    13:00 +28°C° 0 mm 2 mps 748 mmHg 43%
    14:00 +28°C° 0 mm 2 mps 748 mmHg 45%
    15:00 +28°C° 0 mm 3 mps 747 mmHg 46%
    16:00 +28°C° 0 mm 3 mps 747 mmHg 48%
    17:00 +26°C° 0 mm 3 mps 747 mmHg 55%
    18:00 +25°C° 0 mm 3 mps 747 mmHg 62%
    19:00 +24°C° 0 mm 2 mps 747 mmHg 69%
    20:00 +21°C° 0 mm 2 mps 747 mmHg 72%
    21:00 +20°C° 0 mm 2 mps 747 mmHg 75%
    22:00 +19°C° 0 mm 2 mps 747 mmHg 79%
    23:00 +18°C° 0 mm 2 mps 747 mmHg 80%

    Day after tomorrow, 28 May, Monday

    Time Temperature Precipitation Wind Pressure Humidity
    00:00 +18°C° 0 mm 2 mps 747 mmHg 81%
    01:00 +18°C° 0 mm 2 mps 747 mmHg 83%
    02:00 +17°C° 0 mm 2 mps 747 mmHg 85%
    03:00 +17°C° 0 mm 2 mps 747 mmHg 87%
    04:00 +17°C° 0 mm 2 mps 747 mmHg 89%
    05:00 +19°C° 0 mm 2 mps 747 mmHg 84%
    06:00 +20°C° 0 mm 2 mps 747 mmHg 79%
    07:00 +23°C° 0 mm 2 mps 748 mmHg 75%
    08:00 +25°C° 0 mm 3 mps 748 mmHg 69%
    09:00 +26°C° 0 mm 3 mps 748 mmHg 62%
    10:00 +27°C° 0 mm 4 mps 748 mmHg 56%
    11:00 +28°C° 0 mm 4 mps 748 mmHg 54%
    12:00 +29°C° 0 mm 4 mps 747 mmHg 51%
    13:00 +29°C° 0 mm 4 mps 747 mmHg 49%
    14:00 +29°C° 0 mm 4 mps 747 mmHg 50%
    15:00 +29°C° 0 mm 4 mps 747 mmHg 50%
    16:00 +29°C° 0 mm 5 mps 746 mmHg 51%
    17:00 +27°C° 0 mm 4 mps 746 mmHg 57%
    18:00 +26°C° 0 mm 4 mps 746 mmHg 63%
    19:00 +24°C° 0 mm 3 mps 746 mmHg 69%
    20:00 +22°C° 0 mm 3 mps 746 mmHg 72%
    21:00 +20°C° 0 mm 3 mps 746 mmHg 75%
    22:00 +19°C° 0 mm 3 mps 747 mmHg 79%
    23:00 +18°C° 0 mm 3 mps 746 mmHg 79%

    29 May, Tuesday

    Time Temperature Precipitation Wind Pressure Humidity
    00:00 +17°C° 0 mm 3 mps 746 mmHg 80%
    01:00 +17°C° 0 mm 3 mps 746 mmHg 81%
    02:00 +16°C° 0 mm 2 mps 746 mmHg 83%
    03:00 +16°C° 0 mm 2 mps 746 mmHg 85%
    04:00 +15°C° 0 mm 2 mps 746 mmHg 87%
    05:00 +17°C° 0 mm 2 mps 746 mmHg 82%
    06:00 +19°C° 0 mm 2 mps 746 mmHg 78%
    07:00 +20°C° 0 mm 2 mps 746 mmHg 73%
    08:00 +22°C° 0 mm 3 mps 745 mmHg 68%
    09:00 +25°C° 0 mm 3 mps 745 mmHg 64%
    10:00 +27°C° 0 mm 3 mps 745 mmHg 59%
    11:00 +28°C° 0.1 mm 3 mps 745 mmHg 57%
    12:00 +29°C° 0.1 mm 3 mps 745 mmHg 55%
    13:00 +30°C° 0.1 mm 3 mps 744 mmHg 53%
    14:00 +29°C° 0 mm 3 mps 744 mmHg 54%
    15:00 +29°C° 0 mm 4 mps 743 mmHg 55%
    16:00 +29°C° 0 mm 4 mps 743 mmHg 56%
    17:00 +28°C° 0.4 mm 3 mps 743 mmHg 64%
    18:00 +26°C° 0.4 mm 3 mps 743 mmHg 71%
    19:00 +25°C° 0.4 mm 2 mps 743 mmHg 79%
    20:00 +24°C° 0 mm 2 mps 743 mmHg 82%
    21:00 +21°C° 0 mm 2 mps 743 mmHg 86%
    22:00 +20°C° 0 mm 2 mps 743 mmHg 89%
    23:00 +20°C° 0 mm 3 mps 743 mmHg 89%

    30 May, Wednesday

    Time Temperature Precipitation Wind Pressure Humidity
    00:00 +19°C° 0 mm 3 mps 742 mmHg 89%
    01:00 +19°C° 0 mm 3 mps 742 mmHg 89%
    02:00 +18°C° 0 mm 3 mps 742 mmHg 89%
    03:00 +18°C° 0 mm 3 mps 742 mmHg 90%
    04:00 +18°C° 0 mm 3 mps 742 mmHg 90%
    05:00 +19°C° 0 mm 3 mps 742 mmHg 84%
    06:00 +21°C° 0 mm 4 mps 742 mmHg 78%
    07:00 +22°C° 0 mm 4 mps 743 mmHg 73%
    08:00 +25°C° 0 mm 4 mps 743 mmHg 66%
    09:00 +26°C° 0 mm 4 mps 743 mmHg 59%
    10:00 +28°C° 0 mm 5 mps 743 mmHg 52%
    11:00 +29°C° 0 mm 4 mps 743 mmHg 49%
    12:00 +30°C° 0 mm 4 mps 743 mmHg 47%
    13:00 +30°C° 0 mm 4 mps 743 mmHg 44%
    14:00 +30°C° 0 mm 4 mps 742 mmHg 45%
    15:00 +30°C° 0 mm 4 mps 742 mmHg 45%
    16:00 +30°C° 0 mm 4 mps 742 mmHg 46%
    17:00 +29°C° 0 mm 3 mps 742 mmHg 53%
    18:00 +27°C° 0 mm 3 mps 742 mmHg 59%
    19:00 +26°C° 0 mm 2 mps 742 mmHg 66%
    20:00 +24°C° 0 mm 2 mps 743 mmHg 70%
    21:00 +23°C° 0 mm 2 mps 743 mmHg 75%
    22:00 +20°C° 0 mm 2 mps 743 mmHg 79%
    23:00 +20°C° 0 mm 2 mps 743 mmHg 80%

    31 May, Thursday

    Time Temperature Precipitation Wind Pressure Humidity
    00:00 +19°C° 0 mm 2 mps 743 mmHg 81%
    01:00 +19°C° 0 mm 2 mps 743 mmHg 82%
    02:00 +18°C° 0 mm 2 mps 743 mmHg 82%
    03:00 +18°C° 0 mm 2 mps 743 mmHg 83%
    04:00 +18°C° 0 mm 2 mps 743 mmHg 83%
    05:00 +21°C° 0 mm 1 mps 744 mmHg 77%
    06:00 +23°C° 0 mm 1 mps 744 mmHg 70%
    07:00 +25°C° 0 mm 1 mps 744 mmHg 64%
    08:00 +26°C° 0 mm 2 mps 744 mmHg 59%
    09:00 +28°C° 0 mm 2 mps 744 mmHg 54%
    10:00 +29°C° 0 mm 3 mps 745 mmHg 49%
    11:00 +30°C° 0 mm 3 mps 744 mmHg 48%
    12:00 +30°C° 0 mm 3 mps 744 mmHg 46%
    13:00 +31°C° 0 mm 3 mps 744 mmHg 45%
    14:00 +30°C° 0.1 mm 3 mps 744 mmHg 46%
    15:00 +30°C° 0.1 mm 3 mps 744 mmHg 48%
    16:00 +30°C° 0.1 mm 3 mps 744 mmHg 49%
    17:00 +29°C° 0 mm 3 mps 744 mmHg 55%
    18:00 +27°C° 0 mm 3 mps 744 mmHg 61%
    19:00 +26°C° 0 mm 2 mps 744 mmHg 67%
    20:00 +25°C° 0 mm 2 mps 744 mmHg 71%
    21:00 +23°C° 0 mm 2 mps 744 mmHg 75%
    22:00 +20°C° 0 mm 2 mps 744 mmHg 80%
    23:00 +20°C° 0 mm 2 mps 744 mmHg 80%
    Show more